Regional Weather Roundup
Issued by NWS

Home | Current Version | Previous Version | Text Only | Print | Product List | Glossary Off
Versions: 1 2 3 4 5 6 7 8 9 10 11 12 13 14 15 16 17 18 19 20 21 22 23 24 25 26 27 28 29 30 31 32 33 34 35 36 37 38 39 40 41 42 43 44 45 46 47 48 49 50

000
ASUS43 KOAX 211702
RWRNE

WEATHER ROUNDUP FOR NEBRASKA
NATIONAL WEATHER SERVICE OMAHA NE
1100 AM CST TUE NOV 21 2017

NOTES: SATELLITE DATA IS BEING USED TO AUGMENT CLOUD COVER ABOVE
       12000 FEET.
       "FAIR" INDICATES FEW OR NO CLOUDS BELOW 12,000 FEET WITH NO
       SIGNIFICANT WEATHER AND/OR OBSTRUCTIONS TO VISIBILITY.


NEZ001>004-019>022-054>056-211800-
NEBRASKA PANHANDLE

CITY           SKY/WX    TMP DP  RH WIND       PRES   REMARKS
SCOTTSBLUFF    PTSUNNY   40  27  59 MISG      30.33R
ALLIANCE       CLOUDY    33  26  75 N10       30.31R WCI  25
CHADRON        CLOUDY    33  25  72 NW10      30.33R WCI  25
GORDON         CLOUDY    33  21  61 N16       30.30R WCI  22
KIMBALL        SUNNY     39  28  63 N20       30.30R WCI  30
SIDNEY         CLOUDY    36  26  67 N14       30.31R WCI  27
$$

NEZ057>060-069>072-079>082-211800-
SOUTHWEST NEBRASKA

CITY           SKY/WX    TMP DP  RH WIND       PRES   REMARKS
NORTH PLATTE   SUNNY     39  20  46 N22G30    30.28R WCI  29
IMPERIAL       SUNNY     42  23  46 N21G26    30.29
LEXINGTON      SUNNY     40  23  50 N20G28    30.27R WCI  31
MCCOOK         MOSUNNY   42  25  50 N22G28    30.27R
OGALLALA       MOSUNNY   39  23  51 N20G25    30.31R WCI  30
$$

NEZ005>010-023>029-035>040-094-211800-
NORTH CENTRAL NEBRASKA

CITY           SKY/WX    TMP DP  RH WIND       PRES   REMARKS
VALENTINE      SUNNY     24   7  48 NW18G28   30.33R WCI  10
AINSWORTH      SUNNY     24  10  55 N18G26    30.33R WCI  10
BROKEN BOW     SUNNY     35  18  49 N25G36    30.27R WCI  23
O`NEILL        SUNNY     22  14  71 NW24      30.32R WCI   5
ORD            SUNNY     33  11  39 NW32G48   30.26R WCI  19
THEDFORD       SUNNY     34  20  56 N25G32    30.31R WCI  21
$$

NEZ041-046>049-061>064-073>077-083>087-211800-
SOUTH CENTRAL NEBRASKA

CITY           SKY/WX    TMP DP  RH WIND       PRES   REMARKS
GRAND ISLAND   SUNNY     36  16  44 N30G36    30.25R WCI  23
AURORA         SUNNY     36  14  40 N26G36    30.24R WCI  24
HASTINGS       SUNNY     38  19  46 N31G39    30.25R WCI  25
HEBRON         SUNNY     41  19  40 N23G39    30.22R
HOLDREGE       SUNNY     39  26  58 N21G29    30.25R WCI  29
KEARNEY        SUNNY     39  21  48 N24G31    30.26R WCI  28
YORK           SUNNY     36  16  44 N24G36    30.23R WCI  24
$$

NEZ011>018-030>034-042>045-211800-
NORTHEAST NEBRASKA

CITY           SKY/WX    TMP DP  RH WIND       PRES   REMARKS
NORFOLK        SUNNY     24   9  52 NW23      30.26R WCI   9
ALBION         SUNNY     28  11  48 NW25      30.27R WCI  14
BLAIR          SUNNY     28  12  50 NW22G33   30.20R WCI  14
COLUMBUS       SUNNY     29  12  49 NW26G36   30.26R WCI  14
FREMONT        SUNNY     28  10  47 N21G28    30.26R WCI  15
TEKAMAH        SUNNY     27  11  51 N18G33    30.24R WCI  14
WAYNE          SUNNY     23   6  46 NW23G31   30.26R WCI   8
$$

NEZ050>053-065>068-078-088>093-211800-
SOUTHEAST NEBRASKA

CITY           SKY/WX    TMP DP  RH WIND       PRES   REMARKS
LINCOLN        SUNNY     38   9  30 NW26G37   30.21R WCI  26
OMAHA EPPLEY   MOSUNNY   30  13  49 N29G36    30.19R WCI  15
BEATRICE       MOSUNNY   42  11  28 N29G37    30.20R
FALLS CITY     SUNNY     45  15  30 NW23G35   30.13R
NEBRASKA CITY  SUNNY     37  12  34 N31G39    30.16R WCI  25
PLATTSMOUTH    SUNNY     32  11  42 NW26G36   30.18R HAZE    WCI  19
$$

NEZ044-045-051>053-067-211800-
OMAHA AREA

CITY           SKY/WX    TMP DP  RH WIND       PRES   REMARKS
OMAHA EPPLEY   MOSUNNY   30  13  49 N29G36    30.19R WCI  15
BLAIR          SUNNY     28  12  50 NW22G33   30.20R WCI  14
FREMONT        SUNNY     28  10  47 N21G28    30.26R WCI  15
MILLARD        SUNNY     31  12  45 NW18G25   30.22R WCI  19
OFFUTT AFB     SUNNY     33  10  38 NW23G38   30.19R WCI  20
PLATTSMOUTH    SUNNY     32  11  42 NW26G36   30.18R HAZE    WCI  19
WAHOO          FAIR      30  12  46 N30G37    30.22R WCI  15
$$



USA.gov is the U.S. government's official web portal to all federal, state and local government web resources and services.